TCCKM LEMD-LEIB

Flight info

Callsign TCCKM
Flight time N/A
Altitude 30000
Route NANDO T257 FENXE/N0467F320 T257 LASPO Z224 VARUT
Aircraft CL60/M-SBDE1E2E3FGHIJ1J4J5J7M3RWXYZ/LB1V1D1

Departure

Time 2026-05-01 15:07
Airport Adolfo Suárez Madrid–Barajas Airport (LEMD)

Arrival

Time N/A
Airport Ibiza Airport (LEIB)
Time Latitude Longitude Altitude Speed Heading
2026-05-01 14:42 40.45684 -3.57399 1988 ft 0 kts 43°
2026-05-01 14:53 40.45691 -3.57389 1988 ft 3 kts 43°
2026-05-01 14:54 40.45721 -3.57352 1988 ft 7 kts 44°
2026-05-01 14:54 40.45719 -3.57289 1987 ft 9 kts 128°
2026-05-01 14:54 40.45669 -3.57223 1986 ft 9 kts 134°
2026-05-01 14:54 40.45631 -3.57172 1985 ft 8 kts 136°
2026-05-01 14:55 40.45596 -3.57091 1985 ft 12 kts 75°
2026-05-01 14:55 40.45665 -3.56990 1983 ft 17 kts 44°
2026-05-01 14:55 40.45732 -3.56902 1983 ft 10 kts 45°
2026-05-01 14:55 40.45773 -3.56850 1982 ft 7 kts 44°
2026-05-01 14:56 40.45805 -3.56771 1981 ft 11 kts 84°
2026-05-01 14:56 40.45806 -3.56643 1978 ft 17 kts 89°
2026-05-01 14:56 40.45857 -3.56544 1977 ft 14 kts
2026-05-01 14:56 40.45969 -3.56535 1977 ft 17 kts
2026-05-01 14:57 40.46100 -3.56525 1977 ft 20 kts
2026-05-01 14:57 40.46418 -3.56500 1977 ft 25 kts
2026-05-01 14:57 40.46583 -3.56487 1977 ft 24 kts
2026-05-01 14:58 40.46749 -3.56473 1977 ft 24 kts
2026-05-01 14:58 40.46932 -3.56459 1976 ft 27 kts
2026-05-01 14:58 40.47107 -3.56490 1974 ft 25 kts 336°
2026-05-01 14:58 40.47245 -3.56611 1976 ft 23 kts 322°
2026-05-01 14:59 40.47372 -3.56740 1981 ft 23 kts 321°
2026-05-01 14:59 40.47506 -3.56875 1983 ft 24 kts 322°
2026-05-01 14:59 40.47644 -3.57015 1987 ft 25 kts 322°
2026-05-01 14:59 40.47782 -3.57155 1989 ft 25 kts 322°
2026-05-01 15:00 40.48039 -3.57417 1996 ft 21 kts 321°
2026-05-01 15:00 40.48148 -3.57528 1999 ft 19 kts 322°
2026-05-01 15:00 40.48258 -3.57641 2002 ft 19 kts 321°
2026-05-01 15:01 40.48359 -3.57742 2005 ft 18 kts 322°
2026-05-01 15:01 40.48449 -3.57824 2007 ft 15 kts 327°
2026-05-01 15:01 40.48548 -3.57898 2009 ft 17 kts 336°
2026-05-01 15:01 40.48669 -3.57933 2010 ft 18 kts 360°
2026-05-01 15:02 40.48757 -3.57928 2010 ft 7 kts 34°
2026-05-01 15:02 40.48764 -3.57877 2009 ft 11 kts 90°
2026-05-01 15:02 40.48764 -3.57694 2003 ft 19 kts 90°
2026-05-01 15:02 40.48765 -3.57492 1999 ft 24 kts 89°
2026-05-01 15:03 40.48766 -3.57249 1993 ft 29 kts 90°
2026-05-01 15:03 40.48766 -3.57011 1987 ft 22 kts 89°
2026-05-01 15:03 40.48767 -3.56783 1979 ft 27 kts 89°
2026-05-01 15:03 40.48769 -3.56554 1971 ft 22 kts 89°
2026-05-01 15:04 40.48768 -3.56330 1962 ft 27 kts 90°
2026-05-01 15:04 40.48778 -3.56160 1956 ft 11 kts 54°
2026-05-01 15:04 40.48853 -3.56139 1956 ft 12 kts 359°
2026-05-01 15:04 40.48955 -3.56141 1957 ft 16 kts 359°
2026-05-01 15:05 40.49078 -3.56140 1958 ft 18 kts 359°
2026-05-01 15:05 40.49218 -3.56141 1959 ft 20 kts 359°
2026-05-01 15:05 40.49297 -3.56115 1959 ft 8 kts 64°
2026-05-01 15:05 40.49300 -3.56004 1955 ft 16 kts 89°
2026-05-01 15:06 40.49298 -3.55888 1951 ft 8 kts 98°
2026-05-01 15:06 40.49271 -3.55787 1948 ft 15 kts 110°
2026-05-01 15:06 40.49223 -3.55629 1942 ft 21 kts 113°
2026-05-01 15:06 40.49161 -3.55460 1938 ft 16 kts 122°
2026-05-01 15:07 40.49017 -3.55306 1934 ft 58 kts 142°
2026-05-01 15:07 40.48425 -3.54706 1920 ft 151 kts 142°
2026-05-01 15:07 40.47509 -3.53776 2438 ft 182 kts 143°
2026-05-01 15:07 40.46408 -3.52666 3073 ft 215 kts 143°
2026-05-01 15:08 40.45198 -3.51456 3983 ft 229 kts 143°
2026-05-01 15:08 40.43965 -3.50225 5342 ft 229 kts 143°
2026-05-01 15:08 40.42878 -3.48773 6692 ft 231 kts 125°
2026-05-01 15:08 40.42045 -3.46968 7817 ft 242 kts 121°
2026-05-01 15:09 40.41206 -3.45081 9006 ft 250 kts 121°
2026-05-01 15:09 40.40334 -3.43129 10264 ft 255 kts 122°
2026-05-01 15:09 40.39440 -3.41133 11489 ft 262 kts 122°
2026-05-01 15:09 40.38512 -3.39062 12737 ft 269 kts 122°
2026-05-01 15:10 40.37572 -3.36967 13965 ft 275 kts 122°